[Date Prev][Date Next][Thread Prev][Thread Next] - [Date Index][Thread Index][Author Index]

2 Line ISS Keps 3-15



ISS
1 25544U 98067A   06073.99782407  .00012663  00000-0  89755-4 0  5309
2 25544 051.6454 312.0969 0008664 007.8594 198.4344 15.74350036418318
----
Via the sarex mailing list at AMSAT.ORG courtesy of AMSAT-NA.
To unsubscribe, send "unsubscribe sarex" to Majordomo@amsat.org



AMSAT Top AMSAT Home